Karol Buksa

Scout - Lech
3 Dec 2028
Sunday
Process

Personality

Adaptability (10) Ambition (3) Controversy (4) Loyalty (12) Pressure (19) Professionalism (10) Sportsmanship (1) Temperament (3)

Profile

Coaching Style Democratic
License National A
Determination 10
Man Management 5
Motivating 5
Discipline 13
Job Satisfaction
100%
Fatigue
0%
Role Scout
Wage 36.9K p/w
Contract 14.03.2030

Performance

Behaviour Good
Training Effectiveness
50%
Player Development
40%
Injury Prevention
60%
Tactical Implementation
30%

Recent Events

Attended a recruitment meeting 7d ago
Attended a recruitment meeting 7d ago
Attended a recruitment meeting 14d ago
Attended a recruitment meeting 14d ago
Attended a recruitment meeting 21d ago
Attended a recruitment meeting 21d ago
Attended a recruitment meeting 28d ago
Attended a recruitment meeting 28d ago

Currently Monitoring

57
Player Club Status Ability Confidence Watched Last Observed Latest Vote
Roman Yakuba Zaglebie Active 120 / 110 48% 1 07.08.2028 -
Diego Coppola Paris FC Active 166 / 152 40% 2 02.06.2028 -
António Silva Bournemouth Active 132 / 161 40% 1 02.06.2028 -
Zito Luvumbo Cagliari Active 126 / 131 40% 1 31.05.2028 -
Archie Gray Southampton Active 143 / 160 40% 3 27.05.2028 -
Max Johnston Derby County Active 132 / 149 40% 2 27.05.2028 -
Patrick Dorgu Bristol City Active 164 / 149 40% 1 26.05.2028 -
Ayden Heaven Portsmouth Active 148 / 155 40% 1 26.05.2028 -
Adam Wharton Crystal Palace Active 154 / 170 40% 1 24.05.2028 -
Calvin Ramsay Bristol Rovers Active 136 / 116 40% 1 24.05.2028 -
Jacques Ekomié Wrexham Active 142 / 123 40% 1 22.05.2028 -
Juanlu Bournemouth Active 146 / 162 40% 1 21.05.2028 -
Reuell Walters Luton Town Active 109 / 128 40% 1 21.05.2028 -
Brooke Norton-Cuffy Hull City Active 143 / 149 40% 2 17.05.2028 -
Lewis Hall Newcastle United Active 171 / 166 40% 1 17.05.2028 -
Bosun Lawal Stoke City Active 143 / 123 40% 3 14.05.2028 -
Trey Nyoni Rotherham United Active 131 / 135 40% 2 14.05.2028 -
Tim Iroegbunam Peterborough United Active 155 / 150 40% 2 09.05.2028 -
Josh Acheampong Everton Active 132 / 157 40% 1 09.05.2028 -
Sydie Peck Swindon Town Active 120 / 145 40% 1 08.05.2028 -
Habib Diarra Sunderland Active 128 / 145 40% 3 07.05.2028 -
Harvey Vale Queens Park Rangers Active 111 / 133 40% 1 07.05.2028 -
Marco Palestra Everton Active 152 / 136 40% 1 05.05.2028 -
Joshua Quarshie Exeter City Active 112 / 122 40% 1 15.04.2028 -
Yehor Yarmoliuk Brentford Active 161 / 158 40% 1 12.04.2028 -
Agustín Giay Palmeiras Active 135 / 149 40% 2 03.04.2028 -
François Gaillard Monaco Active 162 / 145 40% 1 29.03.2028 -
Giovanni Leoni Lincoln City Active 140 / 155 40% 1 28.03.2028 -
Arsène Kouassi AS Nancy Active 145 / 147 40% 1 27.03.2028 -
Honest Ahanor Atalanta Active 149 / 125 40% 1 26.03.2028 -
Andrey Santos Bolton Wanderers Active 168 / 158 40% 1 23.03.2028 -
Ondřej Lingr Korona Active 139 / 138 48% 1 03.01.2028 Monitor
Baralhas Vitória Active 128 / 114 40% 1 31.12.2027 -
Santiago Ramos Mingo Bahia Active 141 / 145 40% 1 31.12.2027 -
Vladislav Blănuţă Lechia Active 125 / 124 48% 1 01.01.2027 -
Callum O'Hare Sheffield United Lost 149 / 126 40% 1 31.12.2026 -
Joe Gelhardt Hull City Active 150 / 144 40% 1 29.12.2026 -
Welington Southampton Active 149 / 139 40% 1 28.12.2026 -
Oswin Appollis Orlando Pirates Active 110 / 132 40% 1 28.12.2026 -
Mohamed-Ali Cho Hull City Active 140 / 120 40% 1 27.12.2026 -
Jack McGlynn Stoke City Active 118 / 143 40% 1 26.12.2026 -
Mohammad Mehdi Mohebi Persepolis Active 139 / 104 40% 2 13.12.2026 -
Oston O'runov Persepolis Active 145 / 137 40% 2 13.12.2026 -
Ola Brynhildsen Rapid Wien Active 151 / 139 40% 1 11.12.2026 -
Santiago Pierotti Lecce Active 137 / 135 40% 1 10.12.2026 -
Manu Morlanes Mallorca Active 116 / 137 40% 1 10.12.2026 -
Ronaldo Vásquez Sumgayit Active 107 / 100 40% 1 06.12.2026 -
Armstrong Oko-Flex Levski Active 113 / 117 40% 3 01.12.2026 -
Peter Federico Gornik Zabrze Active 122 / 134 40% 1 01.12.2026 -
Sergey Pinyaev Lokomotiv Moscow Active 113 / 134 40% 1 25.11.2026 -
Marco Pašalić Orlando City Active 141 / 136 40% 1 24.11.2026 -
Sota Kitano Red Bull Salzburg Active 120 / 133 40% 1 22.11.2026 -
Jesus Ferreira Seattle Sounders Active 140 / 136 40% 1 20.11.2026 -
Marcelo Allende Mamelodi Sundowns Active 113 / 121 40% 1 14.11.2026 -
Esequiel Barco Spartak Moscow Active 143 / 143 40% 1 03.11.2026 -
Giovani Lo Celso Betis Active 149 / 164 40% 1 01.08.2026 -
Jordan Beyer Burnley Active 127 / 113 40% 1 01.08.2026 -